Location: Atbuku
(36.4936°N, 30.4362°E)
Time: 18:43:03
(UTC+00:00)

H-II Stage 2 - Pass Details

Date: 11 December 2025
Orbit: 318 x 26713 km, 28.4° (Epoch: 15 January)

Event Time Altitude Azimuth Distance (km) Brightness Sun altitude
Rises 14:42:32 0° 269° (W) 14,898 10.3 -0.7°
Reaches altitude 10° 15:02:09 10° 268° (W) 8,859 9.2 -4.3°
Maximum altitude 15:20:48 44° 203° (SSW) 1,678 4.7 -7.7°
Drops below altitude 10° 15:24:55 10° 129° (SE) 2,065 4.5 -8.4°
Sets 15:26:18 0° 121° (ESE) 2,623 4.9 -8.7°
